QPF
0.00 0.00 0.00 0.00 0.00 0.00 0.00 0.00 0.00 0.00 0.00 0.00 0.00 0.00 0.00 0.00 0.00 0.00 0.00 0.00 0.01 0.02 0.03 0.03 0.05 0.08 0.08 0.10 0.13 0.14 0.23 0.32 0.32 0.25 0.20 0.18 0.14 0.11 0.09 0.06 0.05 0.04 0.04 0.03
0.00 0.00 0.00 0.00 0.00 0.00 0.00 0.00 0.00 0.00 0.00 0.00 0.00 0.00 0.00 0.01 0.00 0.00 0.00 0.00 0.00 0.02 0.02 0.03 0.05 0.08 0.08 0.08 0.11 0.14 0.16 0.27 0.27 0.23 0.19 0.17 0.14 0.10 0.08 0.06 0.06 0.03 0.03 0.03
0.00 0.00 0.00 0.00 0.00 0.00 0.00 0.00 0.00 0.00 0.00 0.00 0.00 0.00 0.01 0.02 0.00 0.01 0.01 0.00 0.00 0.01 0.01 0.02 0.04 0.07 0.08 0.08 0.08 0.10 0.14 0.20 0.22 0.23 0.23 0.20 0.16 0.12 0.09 0.07 0.06 0.03 0.02 0.02
0.00 0.00 0.00 0.00 0.00 0.00 0.00 0.00 0.00 0.00 0.00 0.00 0.00 0.01 0.02 0.03 0.04 0.03 0.01 0.00 0.00 0.01 0.01 0.01 0.03 0.03 0.04 0.06 0.07 0.11 0.13 0.16 0.19 0.21 0.21 0.17 0.11 0.09 0.07 0.06 0.06 0.07 0.05 0.04
0.00 0.00 0.00 0.00 0.00 0.00 0.00 0.00 0.00 0.00 0.00 0.00 0.01 0.01 0.02 0.04 0.08 0.08 0.03 0.01 0.00 0.00 0.01 0.01 0.01 0.01 0.02 0.04 0.07 0.10 0.13 0.16 0.18 0.18 0.19 0.19 0.16 0.13 0.09 0.06 0.08 0.07 0.05 0.03
0.00 0.00 0.00 0.00 0.00 0.00 0.00 0.00 0.00 0.00 0.00 0.03 0.03 0.03 0.04 0.05 0.05 0.05 0.01 0.01 0.00 0.00 0.01 0.01 0.01 0.01 0.01 0.02 0.04 0.07 0.10 0.14 0.18 0.18 0.17 0.16 0.15 0.12 0.09 0.07 0.07 0.06 0.04 0.03
0.00 0.00 0.00 0.00 0.00 0.00 0.00 0.00 0.00 0.01 0.03 0.08 0.07 0.03 0.02 0.01 0.00 0.00 0.00 0.00 0.00 0.00 0.01 0.01 0.01 0.01 0.01 0.02 0.03 0.07 0.10 0.14 0.17 0.16 0.15 0.15 0.16 0.13 0.09 0.06 0.06 0.05 0.04 0.03
0.00 0.00 0.00 0.00 0.00 0.00 0.00 0.00 0.00 0.02 0.04 0.08 0.07 0.04 0.01 0.00 0.00 0.00 0.00 0.00 0.00 0.00 0.00 0.00 0.01 0.01 0.01 0.02 0.04 0.07 0.09 0.12 0.15 0.16 0.18 0.16 0.15 0.10 0.07 0.07 0.06 0.04 0.03 0.03
0.00 0.00 0.00 0.00 0.00 0.00 0.00 0.00 0.00 0.00 0.01 0.02 0.04 0.05 0.03 0.01 0.00 0.00 0.00 0.00 0.00 0.00 0.00 0.00 0.00 0.00 0.01 0.02 0.04 0.07 0.11 0.11 0.10 0.13 0.17 0.17 0.14 0.10 0.08 0.06 0.06 0.06 0.05 0.03
0.00 0.00 0.00 0.00 0.00 0.00 0.00 0.00 0.00 0.00 0.00 0.01 0.02 0.04 0.07 0.05 0.01 0.01 0.00 0.00 0.00 0.00 0.00 0.00 0.00 0.00 0.01 0.02 0.04 0.07 0.09 0.11 0.10 0.10 0.11 0.12 0.13 0.11 0.10 0.08 0.07 0.07 0.06 0.05
0.00 0.00 0.00 0.00 0.00 0.00 0.00 0.00 0.00 0.00 0.00 0.00 0.02 0.03 0.05 0.04 0.03 0.01 0.00 0.00 0.00 0.00 0.00 0.00 0.00 0.00 0.01 0.02 0.03 0.06 0.07 0.09 0.09 0.08 0.10 0.12 0.11 0.11 0.10 0.09 0.08 0.08 0.08 0.08
0.00 0.00 0.00 0.00 0.00 0.00 0.00 0.00 0.00 0.00 0.00 0.00 0.01 0.03 0.03 0.03 0.04 0.03 0.01 0.00 0.00 0.00 0.00 0.00 0.00 0.00 0.01 0.03 0.04 0.05 0.07 0.06 0.07 0.08 0.11 0.12 0.12 0.12 0.10 0.09 0.08 0.08 0.06 0.06
0.00 0.00 0.00 0.01 0.01 0.01 0.00 0.00 0.00 0.00 0.00 0.00 0.01 0.03 0.03 0.02 0.02 0.01 0.00 0.00 0.00 0.00 0.00 0.00 0.01 0.03 0.02 0.03 0.06 0.07 0.09 0.09 0.10 0.10 0.10 0.10 0.11 0.12 0.13 0.10 0.08 0.09 0.08 0.09
0.00 0.00 0.00 0.02 0.04 0.05 0.04 0.01 0.00 0.00 0.00 0.00 0.00 0.02 0.03 0.04 0.03 0.01 0.00 0.00 0.00 0.01 0.01 0.01 0.03 0.04 0.03 0.05 0.06 0.07 0.09 0.09 0.10 0.10 0.09 0.10 0.11 0.12 0.14 0.13 0.10 0.08 0.08 0.09
0.00 0.00 0.00 0.01 0.01 0.02 0.03 0.02 0.01 0.01 0.00 0.00 0.01 0.02 0.04 0.04 0.03 0.02 0.01 0.01 0.01 0.01 0.01 0.01 0.02 0.04 0.04 0.05 0.06 0.07 0.09 0.10 0.10 0.09 0.10 0.10 0.11 0.11 0.11 0.13 0.10 0.08 0.07 0.08
0.00 0.00 0.00 0.00 0.00 0.00 0.00 0.01 0.01 0.01 0.00 0.00 0.01 0.02 0.03 0.04 0.06 0.03 0.02 0.01 0.01 0.01 0.01 0.01 0.02 0.02 0.05 0.05 0.04 0.05 0.06 0.09 0.10 0.11 0.10 0.11 0.11 0.10 0.10 0.10 0.09 0.08 0.08 0.10
0.01 0.02 0.02 0.01 0.00 0.01 0.00 0.00 0.00 0.00 0.00 0.00 0.01 0.02 0.02 0.02 0.02 0.02 0.02 0.02 0.03 0.02 0.01 0.02 0.03 0.03 0.05 0.05 0.05 0.06 0.05 0.06 0.08 0.09 0.09 0.09 0.10 0.10 0.10 0.10 0.10 0.11 0.11 0.13
0.02 0.03 0.03 0.01 0.01 0.01 0.01 0.00 0.01 0.00 0.00 0.01 0.02 0.03 0.02 0.03 0.02 0.01 0.01 0.03 0.04 0.02 0.02 0.02 0.02 0.02 0.03 0.03 0.04 0.05 0.05 0.05 0.06 0.07 0.07 0.08 0.09 0.09 0.10 0.10 0.10 0.10 0.11 0.12
0.01 0.03 0.04 0.02 0.02 0.01 0.02 0.01 0.01 0.02 0.02 0.02 0.01 0.03 0.02 0.02 0.02 0.03 0.04 0.06 0.04 0.02 0.03 0.03 0.02 0.03 0.03 0.04 0.04 0.05 0.05 0.07 0.06 0.06 0.07 0.08 0.08 0.09 0.09 0.09 0.10 0.11 0.12 0.12
0.03 0.05 0.05 0.04 0.04 0.02 0.04 0.03 0.01 0.02 0.05 0.06 0.03 0.03 0.03 0.03 0.05 0.05 0.05 0.07 0.06 0.03 0.03 0.04 0.04 0.03 0.04 0.06 0.08 0.08 0.09 0.10 0.10 0.09 0.10 0.12 0.13 0.11 0.10 0.11 0.12 0.12 0.12 0.13
0.07 0.07 0.07 0.06 0.06 0.04 0.04 0.02 0.04 0.07 0.11 0.08 0.05 0.03 0.04 0.05 0.06 0.05 0.04 0.07 0.05 0.04 0.04 0.05 0.04 0.04 0.05 0.07 0.09 0.09 0.09 0.09 0.11 0.11 0.11 0.11 0.12 0.13 0.11 0.12 0.12 0.10 0.09 0.11
0.05 0.06 0.08 0.08 0.08 0.08 0.04 0.02 0.07 0.10 0.10 0.11 0.10 0.09 0.08 0.06 0.04 0.03 0.04 0.05 0.04 0.04 0.04 0.04 0.04 0.04 0.05 0.05 0.06 0.07 0.08 0.10 0.09 0.09 0.09 0.09 0.09 0.08 0.07 0.08 0.08 0.09 0.10 0.10
0.05 0.05 0.06 0.06 0.08 0.08 0.04 0.04 0.04 0.05 0.09 0.13 0.12 0.12 0.11 0.07 0.06 0.04 0.05 0.05 0.04 0.04 0.04 0.04 0.04 0.04 0.05 0.05 0.05 0.07 0.06 0.06 0.07 0.07 0.07 0.06 0.05 0.05 0.06 0.07 0.06 0.05 0.06 0.06
0.05 0.03 0.05 0.05 0.06 0.06 0.05 0.04 0.05 0.07 0.10 0.12 0.11 0.09 0.13 0.09 0.07 0.05 0.04 0.05 0.05 0.04 0.03 0.04 0.03 0.03 0.04 0.05 0.06 0.07 0.07 0.06 0.06 0.06 0.06 0.05 0.05 0.05 0.05 0.06 0.06 0.06 0.06 0.06
0.05 0.06 0.07 0.06 0.07 0.08 0.08 0.06 0.06 0.10 0.14 0.12 0.10 0.09 0.09 0.08 0.08 0.06 0.04 0.04 0.04 0.04 0.03 0.03 0.02 0.02 0.03 0.03 0.04 0.05 0.05 0.05 0.06 0.05 0.05 0.05 0.05 0.04 0.04 0.04 0.05 0.05 0.05 0.05
0.06 0.05 0.07 0.07 0.07 0.07 0.08 0.06 0.08 0.12 0.15 0.13 0.09 0.08 0.07 0.07 0.07 0.05 0.05 0.05 0.05 0.04 0.04 0.04 0.03 0.03 0.03 0.03 0.03 0.03 0.03 0.04 0.04 0.03 0.03 0.03 0.03 0.02 0.02 0.02 0.02 0.02 0.02 0.01
MSLP
1006.55 1006.90 1007.01 1006.93 1006.72 1006.43 1006.12 1005.83 1005.58 1005.34 1005.10 1004.84 1004.54 1004.22 1003.91 1003.67 1003.54 1003.57 1003.77 1004.13 1004.63 1005.21 1005.82 1006.42 1006.99 1007.53 1008.03 1008.55 1009.11 1009.72 1010.38 1011.05 1011.72 1012.32 1012.81 1013.16 1013.38 1013.47 1013.49 1013.47 1013.49 1013.57 1013.75 1014.02
1006.83 1006.99 1006.94 1006.74 1006.47 1006.21 1006.02 1005.91 1005.87 1005.84 1005.77 1005.60 1005.33 1004.95 1004.52 1004.12 1003.83 1003.72 1003.84 1004.17 1004.70 1005.35 1006.06 1006.76 1007.39 1007.95 1008.44 1008.91 1009.38 1009.90 1010.48 1011.11 1011.76 1012.36 1012.88 1013.27 1013.52 1013.62 1013.64 1013.60 1013.58 1013.63 1013.78 1014.03
1006.86 1006.84 1006.62 1006.32 1006.04 1005.86 1005.84 1005.97 1006.20 1006.42 1006.56 1006.52 1006.27 1005.82 1005.24 1004.64 1004.13 1003.82 1003.78 1004.02 1004.51 1005.19 1005.96 1006.73 1007.43 1008.03 1008.53 1008.96 1009.38 1009.84 1010.35 1010.94 1011.57 1012.18 1012.73 1013.17 1013.46 1013.62 1013.66 1013.64 1013.63 1013.67 1013.82 1014.08
1006.63 1006.42 1006.07 1005.71 1005.45 1005.40 1005.59 1006.00 1006.53 1007.04 1007.40 1007.50 1007.28 1006.77 1006.03 1005.20 1004.44 1003.88 1003.62 1003.71 1004.11 1004.77 1005.57 1006.39 1007.15 1007.80 1008.32 1008.75 1009.14 1009.54 1010.02 1010.56 1011.16 1011.79 1012.37 1012.86 1013.22 1013.45 1013.55 1013.59 1013.62 1013.69 1013.86 1014.13
1006.15 1005.78 1005.33 1004.93 1004.74 1004.85 1005.28 1005.97 1006.81 1007.61 1008.20 1008.45 1008.28 1007.70 1006.81 1005.76 1004.73 1003.91 1003.42 1003.32 1003.60 1004.20 1004.99 1005.86 1006.67 1007.38 1007.94 1008.38 1008.76 1009.13 1009.55 1010.06 1010.65 1011.27 1011.88 1012.42 1012.85 1013.16 1013.34 1013.46 1013.54 1013.67 1013.88 1014.18
1005.47 1004.99 1004.47 1004.09 1003.99 1004.27 1004.92 1005.89 1007.01 1008.07 1008.86 1009.25 1009.13 1008.51 1007.50 1006.26 1005.01 1003.95 1003.24 1002.96 1003.11 1003.63 1004.41 1005.29 1006.16 1006.91 1007.52 1007.98 1008.36 1008.71 1009.10 1009.57 1010.12 1010.73 1011.35 1011.93 1012.43 1012.81 1013.08 1013.27 1013.43 1013.62 1013.86 1014.20
1004.69 1004.15 1003.62 1003.29 1003.29 1003.72 1004.58 1005.76 1007.10 1008.35 1009.32 1009.81 1009.74 1009.11 1008.03 1006.66 1005.25 1004.02 1003.13 1002.71 1002.75 1003.21 1003.96 1004.86 1005.76 1006.56 1007.21 1007.70 1008.09 1008.42 1008.77 1009.20 1009.71 1010.29 1010.91 1011.51 1012.04 1012.48 1012.82 1013.09 1013.31 1013.55 1013.83 1014.18
1003.93 1003.38 1002.90 1002.64 1002.75 1003.31 1004.30 1005.62 1007.09 1008.47 1009.53 1010.09 1010.07 1009.45 1008.34 1006.92 1005.43 1004.11 1003.14 1002.62 1002.59 1003.01 1003.74 1004.65 1005.58 1006.42 1007.11 1007.63 1008.02 1008.34 1008.66 1009.04 1009.50 1010.04 1010.63 1011.22 1011.78 1012.25 1012.64 1012.95 1013.22 1013.49 1013.79 1014.15
1003.27 1002.80 1002.40 1002.25 1002.46 1003.11 1004.16 1005.53 1007.03 1008.42 1009.50 1010.08 1010.08 1009.48 1008.40 1007.01 1005.53 1004.22 1003.23 1002.70 1002.66 1003.05 1003.78 1004.70 1005.65 1006.52 1007.23 1007.78 1008.18 1008.50 1008.79 1009.13 1009.54 1010.03 1010.57 1011.13 1011.67 1012.15 1012.55 1012.89 1013.17 1013.45 1013.75 1014.09
1002.81 1002.48 1002.23 1002.20 1002.50 1003.18 1004.23 1005.55 1006.97 1008.28 1009.28 1009.81 1009.80 1009.23 1008.22 1006.91 1005.53 1004.29 1003.38 1002.89 1002.87 1003.28 1004.01 1004.93 1005.90 1006.78 1007.53 1008.10 1008.52 1008.84 1009.11 1009.42 1009.78 1010.22 1010.71 1011.22 1011.73 1012.18 1012.57 1012.90 1013.18 1013.44 1013.72 1014.02
1002.61 1002.47 1002.40 1002.51 1002.89 1003.57 1004.54 1005.72 1006.96 1008.08 1008.92 1009.34 1009.28 1008.73 1007.79 1006.61 1005.38 1004.29 1003.49 1003.10 1003.14 1003.57 1004.32 1005.23 1006.20 1007.09 1007.85 1008.45 1008.89 1009.23 1009.51 1009.80 1010.14 1010.53 1010.97 1011.43 1011.89 1012.30 1012.66 1012.96 1013.21 1013.44 1013.67 1013.93
1002.68 1002.77 1002.90 1003.15 1003.59 1004.23 1005.07 1006.03 1007.01 1007.88 1008.48 1008.74 1008.59 1008.04 1007.18 1006.14 1005.08 1004.16 1003.51 1003.23 1003.34 1003.80 1004.54 1005.45 1006.39 1007.29 1008.06 1008.68 1009.16 1009.53 1009.84 1010.14 1010.47 1010.83 1011.23 1011.64 1012.04 1012.41 1012.73 1012.99 1013.21 1013.40 1013.59 1013.81
1002.98 1003.30 1003.64 1004.03 1004.50 1005.08 1005.74 1006.46 1007.13 1007.68 1008.02 1008.06 1007.79 1007.23 1006.44 1005.53 1004.63 1003.88 1003.39 1003.22 1003.38 1003.86 1004.58 1005.45 1006.37 1007.24 1008.02 1008.66 1009.18 1009.61 1009.97 1010.30 1010.64 1010.99 1011.37 1011.75 1012.11 1012.43 1012.71 1012.93 1013.12 1013.28 1013.44 1013.61
1003.44 1003.98 1004.51 1005.00 1005.50 1005.99 1006.47 1006.91 1007.27 1007.50 1007.54 1007.37 1006.97 1006.37 1005.62 1004.83 1004.09 1003.50 1003.14 1003.05 1003.26 1003.72 1004.40 1005.21 1006.07 1006.90 1007.66 1008.33 1008.90 1009.38 1009.79 1010.18 1010.56 1010.93 1011.30 1011.66 1011.99 1012.28 1012.53 1012.73 1012.90 1013.05 1013.19 1013.34
1003.99 1004.70 1005.36 1005.94 1006.42 1006.82 1007.11 1007.30 1007.36 1007.29 1007.07 1006.68 1006.16 1005.53 1004.83 1004.14 1003.53 1003.07 1002.82 1002.79 1003.00 1003.43 1004.03 1004.75 1005.52 1006.29 1007.02 1007.69 1008.29 1008.83 1009.31 1009.77 1010.20 1010.60 1010.99 1011.35 1011.67 1011.95 1012.18 1012.38 1012.54 1012.69 1012.84 1012.99
1004.53 1005.35 1006.08 1006.70 1007.16 1007.46 1007.58 1007.55 1007.36 1007.03 1006.59 1006.04 1005.43 1004.78 1004.14 1003.55 1003.06 1002.72 1002.53 1002.54 1002.73 1003.09 1003.58 1004.18 1004.83 1005.51 1006.18 1006.83 1007.45 1008.03 1008.58 1009.10 1009.59 1010.04 1010.46 1010.84 1011.16 1011.45 1011.69 1011.90 1012.08 1012.26 1012.43 1012.61
1005.00 1005.83 1006.58 1007.19 1007.60 1007.80 1007.80 1007.59 1007.21 1006.71 1006.12 1005.48 1004.83 1004.21 1003.64 1003.16 1002.78 1002.53 1002.41 1002.43 1002.57 1002.83 1003.20 1003.64 1004.15 1004.71 1005.29 1005.90 1006.51 1007.12 1007.72 1008.29 1008.84 1009.35 1009.81 1010.22 1010.57 1010.88 1011.15 1011.38 1011.60 1011.82 1012.03 1012.26
1005.33 1006.11 1006.82 1007.38 1007.72 1007.84 1007.73 1007.41 1006.92 1006.33 1005.67 1005.02 1004.40 1003.85 1003.39 1003.03 1002.78 1002.61 1002.55 1002.56 1002.64 1002.79 1003.01 1003.29 1003.64 1004.05 1004.53 1005.05 1005.63 1006.24 1006.87 1007.50 1008.10 1008.66 1009.18 1009.63 1010.03 1010.37 1010.67 1010.95 1011.22 1011.48 1011.76 1012.03
1005.51 1006.20 1006.82 1007.29 1007.57 1007.61 1007.44 1007.06 1006.53 1005.92 1005.28 1004.67 1004.15 1003.72 1003.40 1003.18 1003.06 1002.99 1002.97 1002.98 1003.01 1003.05 1003.12 1003.23 1003.41 1003.66 1004.01 1004.45 1004.97 1005.56 1006.20 1006.86 1007.51 1008.13 1008.70 1009.21 1009.65 1010.04 1010.40 1010.73 1011.05 1011.37 1011.69 1012.02
1005.60 1006.16 1006.66 1007.03 1007.23 1007.21 1006.99 1006.60 1006.09 1005.52 1004.95 1004.46 1004.06 1003.78 1003.63 1003.58 1003.59 1003.62 1003.66 1003.67 1003.65 1003.60 1003.53 1003.49 1003.51 1003.61 1003.83 1004.16 1004.61 1005.17 1005.81 1006.49 1007.19 1007.86 1008.48 1009.05 1009.55 1010.01 1010.41 1010.80 1011.17 1011.53 1011.91 1012.28
1005.64 1006.07 1006.45 1006.72 1006.83 1006.76 1006.52 1006.13 1005.66 1005.16 1004.71 1004.34 1004.10 1003.99 1004.01 1004.11 1004.26 1004.41 1004.51 1004.54 1004.49 1004.38 1004.21 1004.05 1003.93 1003.90 1004.00 1004.24 1004.62 1005.15 1005.77 1006.47 1007.20 1007.91 1008.59 1009.22 1009.78 1010.29 1010.75 1011.18 1011.59 1012.00 1012.41 1012.81
1005.73 1006.03 1006.29 1006.46 1006.49 1006.37 1006.11 1005.74 1005.31 1004.90 1004.54 1004.31 1004.21 1004.26 1004.43 1004.69 1004.97 1005.22 1005.40 1005.47 1005.43 1005.28 1005.07 1004.82 1004.61 1004.49 1004.50 1004.67 1005.00 1005.48 1006.10 1006.80 1007.54 1008.29 1009.02 1009.69 1010.31 1010.86 1011.36 1011.83 1012.28 1012.71 1013.14 1013.57
1005.94 1006.15 1006.31 1006.38 1006.33 1006.15 1005.86 1005.49 1005.09 1004.73 1004.47 1004.33 1004.35 1004.53 1004.82 1005.20 1005.60 1005.96 1006.22 1006.36 1006.35 1006.22 1006.00 1005.74 1005.50 1005.33 1005.29 1005.41 1005.70 1006.16 1006.75 1007.45 1008.20 1008.97 1009.71 1010.41 1011.05 1011.64 1012.17 1012.66 1013.12 1013.57 1014.01 1014.44
1006.35 1006.48 1006.56 1006.54 1006.41 1006.17 1005.83 1005.43 1005.04 1004.70 1004.47 1004.40 1004.49 1004.74 1005.13 1005.60 1006.09 1006.54 1006.90 1007.12 1007.20 1007.14 1006.97 1006.74 1006.52 1006.36 1006.32 1006.42 1006.68 1007.11 1007.68 1008.35 1009.09 1009.84 1010.58 1011.28 1011.92 1012.51 1013.04 1013.53 1014.00 1014.45 1014.89 1015.31
1006.98 1007.07 1007.08 1006.98 1006.76 1006.44 1006.04 1005.59 1005.17 1004.82 1004.59 1004.53 1004.64 1004.93 1005.37 1005.90 1006.47 1007.00 1007.45 1007.78 1007.96 1008.01 1007.94 1007.80 1007.65 1007.54 1007.52 1007.63 1007.88 1008.28 1008.81 1009.43 1010.11 1010.82 1011.51 1012.17 1012.78 1013.34 1013.86 1014.34 1014.79 1015.22 1015.65 1016.06
1007.82 1007.89 1007.84 1007.66 1007.37 1006.97 1006.48 1005.98 1005.50 1005.10 1004.85 1004.76 1004.87 1005.16 1005.61 1006.18 1006.79 1007.41 1007.95 1008.39 1008.70 1008.87 1008.93 1008.92 1008.87 1008.84 1008.87 1008.99 1009.23 1009.59 1010.05 1010.60 1011.19 1011.81 1012.42 1013.01 1013.55 1014.06 1014.53 1014.97 1015.40 1015.82 1016.23 1016.63
Thickness
5810 5797 5792 5804 5817 5820 5822 5819 5815 5828 5849 5840 5831 5830 5836 5841 5836 5832 5830 5823 5814 5808 5806 5801 5794 5787 5778 5770 5763 5758 5753 5750 5747 5744 5742 5742 5743 5746 5748 5750 5750 5749 5748 5747
5796 5791 5808 5820 5825 5823 5819 5813 5818 5832 5845 5838 5828 5826 5836 5838 5833 5830 5827 5821 5814 5805 5800 5795 5789 5783 5775 5767 5760 5756 5753 5749 5745 5744 5743 5744 5744 5745 5747 5749 5748 5748 5747 5746
5789 5806 5822 5816 5813 5811 5811 5810 5814 5818 5831 5835 5824 5814 5820 5827 5831 5827 5826 5825 5818 5808 5799 5792 5786 5780 5774 5766 5760 5757 5752 5748 5746 5745 5743 5742 5742 5742 5743 5744 5745 5746 5746 5745
5799 5814 5817 5811 5808 5810 5801 5821 5820 5817 5809 5804 5811 5787 5803 5812 5812 5816 5818 5819 5817 5811 5803 5794 5786 5779 5774 5768 5763 5757 5751 5747 5745 5744 5742 5740 5739 5739 5741 5743 5743 5744 5744 5744
5798 5810 5808 5803 5810 5816 5812 5827 5821 5816 5805 5796 5801 5787 5789 5803 5793 5801 5812 5814 5816 5812 5805 5795 5788 5781 5776 5770 5763 5757 5751 5747 5745 5744 5743 5741 5741 5742 5743 5743 5741 5741 5742 5742
5810 5825 5821 5816 5824 5825 5823 5817 5813 5809 5796 5772 5780 5774 5776 5796 5799 5804 5813 5814 5815 5812 5805 5797 5791 5784 5776 5771 5764 5757 5750 5746 5745 5744 5743 5742 5742 5742 5741 5740 5738 5739 5739 5740
5793 5809 5823 5825 5811 5817 5814 5793 5773 5767 5763 5756 5776 5772 5784 5812 5821 5820 5817 5817 5816 5812 5804 5796 5789 5782 5775 5769 5763 5757 5751 5746 5745 5744 5743 5743 5743 5742 5740 5739 5738 5738 5738 5738
5778 5783 5811 5819 5809 5804 5806 5798 5770 5754 5754 5756 5765 5761 5792 5822 5829 5829 5826 5822 5817 5810 5804 5797 5790 5784 5777 5770 5764 5759 5753 5748 5746 5744 5743 5743 5743 5742 5741 5741 5740 5739 5740 5740
5789 5791 5823 5827 5826 5815 5801 5800 5808 5788 5778 5763 5765 5772 5795 5820 5820 5822 5820 5817 5812 5809 5803 5797 5791 5785 5779 5773 5767 5762 5755 5751 5748 5745 5743 5742 5742 5741 5741 5741 5740 5740 5741 5741
5798 5785 5809 5824 5823 5819 5814 5810 5800 5784 5760 5752 5767 5769 5772 5793 5798 5807 5810 5810 5810 5808 5803 5797 5791 5786 5781 5775 5770 5765 5758 5753 5750 5747 5744 5742 5741 5741 5741 5740 5739 5739 5740 5740
5802 5783 5792 5805 5799 5798 5802 5798 5794 5789 5784 5762 5754 5763 5793 5792 5799 5801 5806 5809 5808 5806 5801 5795 5790 5786 5780 5775 5769 5763 5758 5753 5750 5747 5745 5743 5741 5741 5740 5739 5739 5739 5738 5738
5799 5788 5778 5792 5814 5818 5808 5799 5791 5769 5767 5774 5764 5766 5803 5798 5803 5802 5806 5806 5805 5803 5799 5793 5787 5782 5778 5772 5768 5763 5758 5754 5751 5749 5745 5742 5740 5740 5738 5738 5738 5738 5737 5736
5788 5775 5758 5765 5782 5794 5791 5796 5794 5789 5779 5769 5760 5768 5802 5804 5803 5804 5803 5800 5798 5795 5792 5787 5782 5776 5772 5769 5766 5762 5758 5754 5751 5748 5744 5741 5739 5738 5737 5737 5737 5736 5735 5734
5782 5767 5757 5749 5753 5762 5763 5774 5784 5778 5767 5766 5770 5775 5785 5788 5787 5791 5795 5794 5793 5788 5784 5780 5776 5770 5767 5765 5763 5759 5757 5754 5751 5747 5743 5740 5738 5737 5736 5735 5734 5734 5733 5732
5772 5756 5759 5763 5767 5763 5759 5761 5767 5766 5772 5767 5773 5777 5781 5782 5781 5783 5786 5786 5784 5781 5778 5773 5770 5766 5763 5760 5759 5757 5754 5752 5750 5746 5742 5739 5738 5737 5735 5733 5733 5732 5731 5731
5759 5746 5747 5746 5759 5760 5755 5761 5763 5766 5770 5773 5777 5774 5787 5783 5779 5776 5777 5778 5775 5774 5772 5769 5765 5762 5759 5756 5755 5754 5751 5750 5747 5743 5741 5739 5736 5734 5732 5731 5730 5729 5728 5727
5744 5736 5729 5730 5747 5747 5740 5760 5763 5764 5771 5772 5765 5770 5778 5770 5768 5767 5769 5770 5770 5768 5767 5763 5761 5758 5755 5754 5753 5749 5748 5747 5743 5740 5737 5736 5734 5731 5729 5729 5727 5725 5724 5723
5732 5725 5722 5722 5725 5710 5746 5773 5770 5762 5766 5773 5770 5769 5768 5763 5762 5763 5765 5762 5760 5760 5759 5758 5757 5754 5753 5751 5750 5747 5745 5741 5738 5735 5733 5732 5730 5727 5725 5724 5723 5721 5720 5717
5737 5722 5713 5711 5709 5719 5741 5754 5756 5748 5749 5759 5754 5753 5755 5756 5753 5747 5752 5753 5752 5751 5751 5752 5752 5750 5748 5746 5744 5741 5738 5735 5731 5729 5728 5727 5726 5723 5721 5719 5717 5716 5715 5712
5731 5722 5706 5703 5696 5698 5720 5740 5753 5744 5729 5738 5739 5738 5739 5743 5731 5725 5736 5740 5740 5741 5742 5743 5744 5743 5740 5739 5738 5733 5729 5727 5724 5723 5722 5721 5720 5717 5715 5714 5713 5711 5709 5706
5703 5699 5695 5693 5692 5705 5716 5731 5738 5710 5704 5721 5727 5729 5729 5726 5724 5721 5724 5725 5725 5727 5729 5730 5730 5730 5729 5730 5729 5724 5721 5720 5719 5718 5716 5715 5713 5710 5709 5708 5706 5704 5701 5698
5691 5687 5686 5686 5681 5686 5706 5713 5702 5698 5709 5713 5715 5716 5714 5712 5712 5711 5710 5710 5712 5712 5714 5716 5715 5715 5717 5719 5718 5714 5711 5712 5712 5710 5708 5706 5705 5704 5702 5699 5697 5695 5693 5689
5690 5689 5689 5685 5681 5689 5694 5693 5697 5701 5699 5700 5701 5702 5702 5699 5698 5696 5695 5695 5697 5698 5700 5702 5701 5701 5701 5703 5704 5701 5700 5702 5701 5699 5697 5695 5693 5691 5690 5688 5685 5683 5681 5678
5684 5691 5685 5680 5681 5681 5683 5686 5688 5690 5690 5692 5693 5692 5691 5688 5686 5683 5682 5682 5683 5684 5685 5687 5687 5685 5685 5687 5688 5689 5689 5689 5688 5685 5683 5682 5679 5676 5673 5672 5669 5666 5664 5662
5672 5673 5670 5666 5668 5669 5669 5670 5673 5676 5680 5680 5680 5680 5679 5677 5673 5671 5669 5669 5670 5670 5671 5672 5672 5671 5670 5671 5672 5674 5675 5675 5673 5672 5670 5668 5666 5662 5658 5653 5649 5647 5643 5644
5664 5661 5657 5651 5654 5652 5652 5657 5662 5663 5664 5665 5664 5663 5664 5663 5660 5658 5657 5656 5656 5656 5657 5658 5658 5657 5657 5658 5658 5659 5661 5662 5661 5659 5657 5656 5654 5650 5647 5641 5634 5629 5628 5626